Villa Grove, CO

3:23 AM MDT on July 25, 2016 (GMT -0600)
Monarch Pass

Weather History for KMYP - September, 2013

Change the Weather History Date:

Monday, September 16, 2013

  Actual Average (KGUC) Record (KGUC)
Temperature  
Mean Temperature 43 °F -  
Max Temperature 51 °F 66 °F 80 °F (2000)
Min Temperature 35 °F 33 °F 24 °F (2005)
Degree Days  
Heating Degree Days 22    
Moisture  
Dew Point 37 °F    
Average Humidity 83    
Maximum Humidity 100    
Minimum Humidity 54    
Precipitation  
Precipitation 0.00 in - - ()
Sea Level Pressure  
Sea Level Pressure 30.68 in    
Wind  
Wind Speed 13 mph (WSW)    
Max Wind Speed 24 mph    
Max Gust Speed 33 mph    
Visibility 6 miles    
Events Fog , Thunderstorm    
Averages and records for this station are not official NWS values.
T = Trace of Precipitation, MM = Missing Value Source: NWS Daily Summary

Daily Weather History Graph

Daily Weather History Graph

Search for Another Location

Airport or City:

Trip Planner

Search our weather history database for the weather conditions in past years. The results will help you decide how hot, cold, wet, or windy it might be!

Date:

Astronomy

Sep. 16, 2013 Rise Set
Actual Time 6:47 AM MDT 7:11 PM MDT
Civil Twilight 6:21 AM MDT 7:37 PM MDT
Nautical Twilight 5:50 AM MDT 8:08 PM MDT
Astronomical Twilight 5:18 AM MDT 8:40 PM MDT
Moon 5:20 PM MDT (9/16) 3:39 AM MDT (9/16)
Length of Visible Light 13h 16m
Length of Day
12h 23m
Waxing Gibbous, 90% of the Moon is Illuminated
Sep 16
Waxing Gibbous
Sep 19
Full
Sep 26
Last Quarter
Oct 4
New
Oct 11
First Quarter

Hourly Weather History & Observations

Time (MDT) Temp. Windchill Dew Point Humidity Pressure Visibility Wind Dir Wind Speed Gust Speed Precip Events Conditions
12:09 AM 35.6 °F 28.6 °F 33.8 °F 93% 30.69 in 0.2 mi ENE 9.2 mph - N/A Fog Fog
12:29 AM 35.6 °F 29.2 °F 35.6 °F 100% 30.68 in 0.2 mi ENE 8.1 mph - N/A Fog Fog
12:49 AM 35.6 °F 29.9 °F 35.6 °F 100% 30.69 in 0.2 mi East 6.9 mph - N/A Fog Fog
1:09 AM 35.6 °F 30.7 °F 35.6 °F 100% 30.68 in 0.2 mi East 5.8 mph - N/A Fog Fog
1:29 AM 35.6 °F 32.8 °F 33.8 °F 93% 30.68 in 0.2 mi ENE 3.5 mph - N/A Fog Fog
1:49 AM 35.6 °F 31.7 °F 33.8 °F 93% 30.68 in 0.2 mi NE 4.6 mph - N/A Fog Fog
2:09 AM 37.4 °F 32.1 °F 35.6 °F 93% 30.68 in 10.0 mi South 6.9 mph - N/A   Mostly Cloudy
2:29 AM 37.4 °F 33.8 °F 35.6 °F 93% 30.67 in 10.0 mi SSW 4.6 mph - N/A   Overcast
2:49 AM 37.4 °F 31.4 °F 35.6 °F 93% 30.67 in 10.0 mi SSW 8.1 mph - N/A   Mostly Cloudy
3:09 AM 37.4 °F 30.8 °F 35.6 °F 93% 30.66 in 10.0 mi SSW 9.2 mph - N/A   Mostly Cloudy
3:29 AM 37.4 °F 29.8 °F 35.6 °F 93% 30.67 in 0.2 mi SSW 11.5 mph - N/A Fog Fog
3:49 AM 37.4 °F 29.3 °F 35.6 °F 93% 30.66 in 0.2 mi SSW 12.7 mph - N/A Fog Fog
4:09 AM 37.4 °F 28.9 °F 35.6 °F 93% 30.66 in 0.2 mi SSW 13.8 mph - N/A Fog Fog
4:29 AM 37.4 °F 28.9 °F 35.6 °F 93% 30.66 in 0.2 mi SW 13.8 mph - N/A Fog Fog
4:49 AM 37.4 °F 29.3 °F 35.6 °F 93% 30.66 in 0.2 mi SSW 12.7 mph - N/A Fog Fog
5:09 AM 37.4 °F 28.9 °F 35.6 °F 93% 30.66 in 0.2 mi SW 13.8 mph - N/A Fog Fog
5:29 AM 37.4 °F 28.2 °F 35.6 °F 93% 30.66 in 0.2 mi SW 16.1 mph - N/A Fog Fog
5:49 AM 37.4 °F 28.5 °F 35.6 °F 93% 30.66 in 0.2 mi SW 15.0 mph - N/A Fog Fog
6:09 AM 37.4 °F 28.2 °F 35.6 °F 93% 30.66 in 0.2 mi SW 16.1 mph - N/A Fog Fog
6:29 AM 37.4 °F 28.2 °F 35.6 °F 93% 30.67 in 0.2 mi SW 16.1 mph - N/A Fog Fog
6:49 AM 37.4 °F 27.8 °F 35.6 °F 93% 30.67 in 0.2 mi WSW 17.3 mph - N/A Fog Fog
7:09 AM 37.4 °F 28.9 °F 35.6 °F 93% 30.67 in 0.2 mi WSW 13.8 mph - N/A Fog Fog
7:29 AM 37.4 °F 28.5 °F 35.6 °F 93% 30.68 in 0.2 mi SW 15.0 mph - N/A Fog Fog
7:49 AM 37.4 °F 28.5 °F 35.6 °F 93% 30.69 in 0.2 mi WSW 15.0 mph - N/A Fog Fog
8:09 AM 37.4 °F 28.2 °F 35.6 °F 93% 30.69 in 0.2 mi WSW 16.1 mph - N/A Fog Fog
8:29 AM 39.2 °F 31.6 °F 37.4 °F 93% 30.69 in 0.2 mi WSW 12.7 mph - N/A Fog Fog
8:49 AM 37.4 °F 30.8 °F 37.4 °F 100% 30.69 in 0.2 mi WSW 9.2 mph 16.1 mph N/A Fog Fog
9:09 AM 37.4 °F 29.3 °F 37.4 °F 100% 30.70 in 0.2 mi WSW 12.7 mph - N/A Fog Fog
9:29 AM 37.4 °F 28.9 °F 37.4 °F 100% 30.71 in 0.2 mi WSW 13.8 mph 17.3 mph N/A Fog Fog
9:49 AM 39.2 °F 31.2 °F 37.4 °F 93% 30.71 in 0.2 mi WSW 13.8 mph - N/A Fog Fog
10:09 AM 39.2 °F 31.2 °F 37.4 °F 93% 30.71 in 0.2 mi SW 13.8 mph - N/A Fog Fog
10:29 AM 39.2 °F 30.8 °F 37.4 °F 93% 30.71 in 0.2 mi WSW 15.0 mph - N/A Fog Fog
10:49 AM 41.0 °F 33.1 °F 37.4 °F 87% 30.71 in 0.2 mi WSW 15.0 mph - N/A Fog Fog
11:09 AM 39.2 °F 30.8 °F 37.4 °F 93% 30.71 in 0.2 mi WSW 15.0 mph - N/A Fog Fog
11:29 AM 41.0 °F 33.1 °F 39.2 °F 93% 30.71 in 0.2 mi WSW 15.0 mph 21.9 mph N/A Fog Fog
11:49 AM 41.0 °F 32.2 °F 39.2 °F 93% 30.71 in 0.2 mi SW 18.4 mph - N/A Fog Fog
12:09 PM 42.8 °F 34.5 °F 41.0 °F 93% 30.71 in 5.0 mi SW 18.4 mph 26.5 mph N/A   Overcast
12:29 PM 42.8 °F 34.8 °F 41.0 °F 93% 30.71 in 10.0 mi SW 17.3 mph 26.5 mph N/A   Overcast
12:49 PM 42.8 °F 34.5 °F 41.0 °F 93% 30.70 in 10.0 mi SW 18.4 mph 27.6 mph N/A   Overcast
1:09 PM 44.6 °F 36.9 °F 42.8 °F 93% 30.70 in 10.0 mi WSW 18.4 mph 27.6 mph N/A   Overcast
1:29 PM 46.4 °F 38.1 °F 41.0 °F 81% 30.69 in 10.0 mi SW 24.2 mph 29.9 mph N/A   Overcast
1:49 PM 46.4 °F 38.3 °F 39.2 °F 76% 30.68 in 10.0 mi SW 23.0 mph 27.6 mph N/A   Overcast
2:09 PM 46.4 °F 38.1 °F 37.4 °F 71% 30.68 in 10.0 mi West 24.2 mph 33.4 mph N/A Thunderstorm Mostly Cloudy
2:29 PM 46.4 °F 40.7 °F 37.4 °F 71% 30.69 in 10.0 mi WNW 12.7 mph 21.9 mph N/A   Mostly Cloudy
2:49 PM 50.0 °F - 41.0 °F 71% 30.67 in 10.0 mi West 20.7 mph 26.5 mph N/A   Scattered Clouds
3:09 PM 51.8 °F - 37.4 °F 58% 30.67 in 10.0 mi West 21.9 mph 25.3 mph N/A   Scattered Clouds
3:29 PM 51.8 °F - 35.6 °F 54% 30.65 in 10.0 mi West 24.2 mph 28.8 mph N/A Thunderstorm Scattered Clouds
3:49 PM 51.8 °F - 37.4 °F 58% 30.65 in 10.0 mi WSW 21.9 mph 27.6 mph N/A   Scattered Clouds
4:09 PM 51.8 °F - 35.6 °F 54% 30.65 in 10.0 mi West 16.1 mph 27.6 mph N/A   Scattered Clouds
4:27 PM 51.8 °F - 35.6 °F 54% 30.65 in 10.0 mi SW 17.3 mph 25.3 mph N/A Thunderstorm Scattered Clouds
4:49 PM 51.8 °F - 35.6 °F 54% 30.65 in 10.0 mi WSW 16.1 mph 26.5 mph N/A   Mostly Cloudy
5:09 PM 51.8 °F - 35.6 °F 54% 30.65 in 10.0 mi WSW 19.6 mph 24.2 mph N/A   Scattered Clouds
5:29 PM 50.0 °F - 35.6 °F 58% 30.65 in 10.0 mi WSW 11.5 mph 18.4 mph N/A   Mostly Cloudy
5:49 PM 50.0 °F - 37.4 °F 62% 30.65 in 10.0 mi WSW 15.0 mph 19.6 mph N/A Thunderstorm Mostly Cloudy
6:09 PM 51.8 °F - 37.4 °F 58% 30.65 in 10.0 mi West 17.3 mph 21.9 mph N/A Thunderstorm Scattered Clouds
6:29 PM 48.2 °F - 35.6 °F 62% 30.66 in 10.0 mi WSW 12.7 mph - N/A Thunderstorm Mostly Cloudy
6:49 PM 48.2 °F - 35.6 °F 62% 30.65 in 10.0 mi West 15.0 mph - N/A Thunderstorm Mostly Cloudy
7:09 PM 46.4 °F 40.4 °F 35.6 °F 66% 30.66 in 10.0 mi West 13.8 mph - N/A   Scattered Clouds
7:29 PM 46.4 °F 40.7 °F 35.6 °F 66% 30.66 in 10.0 mi West 12.7 mph - N/A Thunderstorm Scattered Clouds
7:49 PM 44.6 °F 38.4 °F 35.6 °F 71% 30.66 in 10.0 mi West 12.7 mph - N/A   Scattered Clouds
8:09 PM 44.6 °F 38.1 °F 35.6 °F 71% 30.67 in 10.0 mi West 13.8 mph - N/A   Scattered Clouds
8:29 PM 44.6 °F 37.8 °F 35.6 °F 71% 30.68 in 10.0 mi WSW 15.0 mph - N/A   Mostly Cloudy
8:49 PM 44.6 °F 37.8 °F 37.4 °F 76% 30.68 in 10.0 mi SW 15.0 mph - N/A   Overcast
9:09 PM 42.8 °F 35.8 °F 39.2 °F 87% 30.68 in 10.0 mi SW 13.8 mph - N/A   Mostly Cloudy
9:29 PM 42.8 °F 36.2 °F 39.2 °F 87% 30.68 in 10.0 mi SW 12.7 mph - N/A   Scattered Clouds
9:49 PM 42.8 °F 35.4 °F 39.2 °F 87% 30.68 in 10.0 mi WSW 15.0 mph - N/A   Mostly Cloudy
10:09 PM 42.8 °F 35.4 °F 39.2 °F 87% 30.68 in 10.0 mi WSW 15.0 mph - N/A   Scattered Clouds
10:29 PM 42.8 °F 35.4 °F 37.4 °F 81% 30.68 in 10.0 mi WSW 15.0 mph - N/A   Scattered Clouds
10:49 PM 41.0 °F 33.1 °F 37.4 °F 87% 30.68 in 10.0 mi WSW 15.0 mph - N/A   Scattered Clouds
11:09 PM 41.0 °F 33.1 °F 37.4 °F 87% 30.68 in 10.0 mi WSW 15.0 mph - N/A   Clear
11:29 PM 41.0 °F 32.5 °F 37.4 °F 87% 30.68 in 10.0 mi WSW 17.3 mph - N/A Thunderstorm Clear
11:49 PM 41.0 °F 31.6 °F 37.4 °F 87% 30.68 in 10.0 mi West 20.7 mph - N/A   Clear